Home   Weather   Columbus   Past weeks
Flag for USA

Past Weather in Columbus, Ohio, USA — Yesterday and Last 2 Weeks

Now
61 °F

Rain. Fog.


Feels Like: 61 °F
Forecast: 77 / 56 °F
Wind: 23 mph from Northwest

Location: John Glenn Columbus International Airport
Current Time: Sep 28, 2020 at 6:49:36 pm
Latest Report: Sep 28, 2020 at 5:58 pm
Visibility: 3 mi
Pressure29.71 "Hg
Humidity: 97%
Dew Point: 60 °F
Location of ColumbusLocation

Past Weather in Columbus — Graph

°F

Columbus Temperature Yesterday

Maximum temperature yesterday: 76 °F (at 3:51 pm)
Minimum temperature yesterday: 62 °F (at 5:51 am)
Average temperature yesterday: 69 °F

High & Low Weather Summary for the Past Weeks

 TemperatureHumidityPressure
High81 °F (Sep 26, 2:51 pm)100% (Sep 17, 7:51 am)30.50 "Hg (Sep 17, 7:51 am)
Low43 °F (Sep 19, 4:51 am)29% (Sep 20, 3:51 pm)29.64 "Hg (Sep 28, 2:51 pm)
Average62 °F71%30.12 "Hg
* Reported Sep 13 5:51 pm — Sep 28 5:58 pm, Columbus. Weather by CustomWeather, © 2020

Note: Actual official high and low records may vary slightly from our data, if they occured in-between our weather recording intervals... More about our weather records

Columbus Weather History for the Previous 24 Hours

Scroll right to see more
 ConditionsComfort  
Time TempWeatherWind HumidityBarometerVisibility
5:58 pm
Mon, Sep 28
61 °FRain. Fog.23 mph97%29.71 "Hg3 mi
5:40 pm68 °FHeavy rain. Fog.20 mph96%29.69 "Hg1 mi
5:17 pm68 °FLight rain. Fog.13 mph93%29.67 "Hg6 mi
5:05 pm68 °FRain. Fog.13 mph93%29.68 "Hg2 mi
4:51 pm68 °FRain. Fog.12 mph93%29.67 "Hg4 mi
3:51 pm73 °FRain. Cloudy.17 mph71%29.65 "Hg6 mi
2:51 pm77 °FCloudy.8 mph58%29.64 "Hg10 mi
1:51 pm78 °FMostly cloudy.17 mph56%29.68 "Hg10 mi
12:51 pm75 °FCloudy.13 mph66%29.71 "Hg9 mi
11:51 am72 °FMostly cloudy.9 mph73%29.73 "Hg10 mi
10:51 am72 °FBroken clouds.15 mph73%29.75 "Hg10 mi
9:51 am69 °FScattered clouds.12 mph79%29.76 "Hg10 mi
8:51 am65 °FScattered clouds.8 mph87%29.76 "Hg10 mi
7:51 am63 °FBroken clouds.No wind93%29.75 "Hg10 mi
6:51 am63 °FPassing clouds.3 mph93%29.75 "Hg10 mi
5:51 am63 °FPassing clouds.3 mph90%29.75 "Hg10 mi
4:51 am63 °FPassing clouds.5 mph90%29.74 "Hg10 mi
3:51 am61 °FPassing clouds.No wind93%29.75 "Hg10 mi
2:51 am63 °FPassing clouds.No wind90%29.76 "Hg10 mi
1:51 am65 °FPassing clouds.No wind85%29.77 "Hg10 mi
12:51 am66 °FPassing clouds.6 mph81%29.78 "Hg10 mi
11:51 pm
Sun, Sep 27
66 °FClear.7 mph81%29.79 "Hg10 mi
10:51 pm66 °FPassing clouds.6 mph78%29.80 "Hg10 mi
9:51 pm67 °FClear.No wind76%29.81 "Hg10 mi
8:51 pm68 °FPassing clouds.5 mph73%29.80 "Hg10 mi
7:51 pm70 °FPassing clouds.6 mph68%29.80 "Hg10 mi
6:51 pm73 °FPassing clouds.12 mph62%29.81 "Hg10 mi
Weather by CustomWeather, © 2020

See weather overview